Weather in Fedorovka

Russia / Rostov Oblast     47°20′08″N   38°22′57″E
temp.,
°C
wind,
m/s
gust,
m/s
humid.,
%
clouds,
%
prec.,
mm/h
press.,
hPa
HPBL,
m
1 march, mon
mon100:00+2wnw3691100 0.1 1021306
03:00+1wnw359497 0.1 1021129
06:00+1wnw238794 0.0 102287
09:00+2nw348296 0.0 1024417
12:00+3nw237095 0.1 1025703
15:00+4nw236695 0.3 1026809
18:00+3wnw227094 0.1 102769
21:00+2nw128273 0.1 102822
2 march, tue
tue200:00+1nne338894 0.0 102971
03:000nne229061 0.0 102935
06:00−1wnw12870 0.0 102821
09:00+1w35763 0.0 1028335
12:00+4wsw686122 0.0 1026976
15:00+3sw8116632 0.0 1023834
18:00+2sw8137696 0.0 1021579
21:00+2wsw7147998 0.0 1020655
3 march, wed
wed300:00+3wsw91579100 0.0 1017600
03:00+2w71289100 0.3 1016571
06:00+2nw61097100 1.9 1015532
09:00+3nw71181100 2.2 1017777
12:00+4nnw796596 0.1 10201045
15:00+4nnw796187 0.1 10211047
18:00+3nw596136 0.0 1023849
21:00+1nw377019 0.0 1025185
4 march, thu
thu400:000wnw35760 0.0 1026126
03:000w35780 0.0 1026116
06:000wsw35800 0.0 1026119
09:00+1wsw58690 0.0 1025412
12:00+4sw710620 0.0 1024679
15:00+4sw811670 0.0 1022677
18:00+2sw712768 0.0 1020487
21:00+1sw513794 0.0 1019343
5 march, fri
fri500:00+2sw6159035 0.0 1018412
03:00+1sw6149019 0.0 1017350
06:00+1sw613900 0.0 1017372
09:00+3sw713820 0.0 1017585
12:00+5sw913750 0.0 1017719
15:00+6sw913740 0.0 1016710
18:00+4sw713830 0.0 1016504
21:00+3ssw614898 0.0 1016420